Temp
6 6 7 7 7 6 6 6 3 3 1 0 1 4 4 6 5 4 2 2 4 5 4 4 3 4 5 3 0 1 -0 -1 -2 -1 -9 -12 -7 -2 -1 2 0 -3 -3 2
6 6 6 6 6 5 5 4 2 1 1 2 2 1 3 4 3 2 1 2 3 4 4 3 2 2 0 1 1 0 -1 -2 -1 1 -5 -8 -6 -7 -5 -4 -2 1 0 2
6 6 6 6 6 5 5 4 1 -2 -3 -1 1 3 2 3 3 3 1 1 -0 -0 0 0 2 1 -1 -0 1 2 2 -4 0 6 0 -6 -6 -7 -6 -0 -0 -3 1 0
5 5 5 5 5 5 5 4 1 1 -2 -2 -0 1 2 2 3 0 -1 -1 1 0 0 0 -0 1 -1 -1 0 -1 0 -2 -5 -3 -3 -6 -4 -7 -6 -3 -1 -1 -1 -1
5 5 5 5 6 5 5 4 1 -0 0 -0 -1 1 2 3 3 -1 -1 -0 1 0 2 1 1 1 -0 -1 -2 -3 -4 -3 -8 -6 -5 -3 -3 -4 -6 -5 -3 -3 -2 -2
4 4 4 4 5 4 5 3 3 2 1 -1 -0 1 3 2 2 -0 -3 -2 -1 -2 -1 -3 -3 -3 -3 -3 -3 -3 -3 -4 -4 -2 -7 -5 -4 -7 -5 -8 -17 -7 -5 -9
3 3 3 4 4 4 4 4 3 1 2 0 -0 -2 -1 -1 -1 0 -5 -3 -2 -5 -3 -4 -4 -5 -6 -6 -7 -6 -4 -4 -4 -5 -6 -4 -11 -16 -13 -13 -17 -22 -16 -18
3 3 3 4 4 4 4 4 3 1 -2 -9 -6 -9 -5 -5 -6 -6 -7 -7 -6 -5 -4 -4 -4 -5 -5 -8 -10 -9 -7 -4 -5 -4 -5 -5 -13 -15 -14 -12 -12 -23 -19 -20
4 4 4 4 5 4 4 4 3 2 -5 -12 -14 -11 -8 -6 -6 -6 -7 -7 -6 -5 -4 -3 -3 -2 -5 -7 -9 -10 -7 -8 -5 -6 -5 -5 -13 -16 -17 -18 -11 -17 -17 -17
3 4 4 5 4 4 4 4 2 1 -14 -15 -14 -13 -12 -10 -8 -7 -7 -8 -6 -6 -5 -3 -4 -5 -8 -6 -8 -9 -8 -8 -8 -6 -6 -8 -14 -15 -16 -10 -11 -14 -15 -14
2 3 3 4 3 3 3 1 -1 -0 -14 -16 -15 -14 -14 -12 -11 -8 -9 -8 -7 -6 -6 -5 -6 -7 -10 -9 -12 -11 -9 -9 -9 -9 -9 -8 -15 -14 -11 -12 -12 -12 -13 -13
-0 -1 -2 -2 -1 -1 -0 -2 -4 -5 -11 -15 -14 -14 -14 -13 -12 -12 -10 -10 -10 -11 -8 -9 -8 -8 -10 -11 -9 -14 -10 -14 -12 -12 -11 -14 -13 -12 -11 -12 -13 -13 -13 -13
-2 -3 -2 -2 -1 -1 -1 -4 -6 -6 -13 -14 -14 -14 -12 -11 -11 -11 -10 -11 -11 -11 -11 -11 -11 -13 -13 -10 -12 -13 -18 -20 -16 -14 -14 -14 -12 -12 -13 -12 -12 -13 -13 -14
-5 -4 -4 -4 -3 -4 -4 -4 -7 -7 -11 -14 -16 -15 -14 -13 -11 -10 -10 -10 -10 -10 -10 -13 -13 -13 -15 -15 -16 -14 -18 -19 -20 -17 -15 -12 -11 -11 -12 -13 -14 -14 -14 -15
-5 -5 -5 -5 -5 -5 -5 -5 -7 -8 -8 -14 -15 -14 -13 -12 -11 -10 -10 -10 -9 -10 -13 -16 -18 -17 -17 -20 -19 -19 -18 -17 -15 -14 -12 -13 -13 -13 -13 -14 -14 -15 -15 -16
-5 -5 -4 -4 -4 -4 -4 -6 -7 -8 -8 -12 -14 -13 -12 -12 -11 -10 -10 -10 -11 -13 -16 -19 -19 -18 -18 -20 -19 -15 -13 -13 -13 -13 -13 -14 -14 -14 -14 -15 -15 -15 -16 -16
-7 -7 -7 -6 -5 -4 -6 -10 -9 -8 -8 -9 -14 -13 -13 -12 -12 -12 -12 -12 -13 -14 -17 -19 -18 -19 -19 -22 -17 -13 -13 -13 -13 -13 -14 -15 -14 -15 -15 -15 -15 -16 -16 -16
-5 -5 -5 -6 -6 -6 -7 -9 -8 -8 -8 -10 -17 -16 -15 -16 -16 -15 -15 -15 -15 -17 -19 -19 -20 -19 -19 -16 -14 -13 -14 -14 -14 -14 -15 -15 -15 -15 -16 -16 -16 -17 -17 -17
-4 -4 -4 -5 -5 -7 -8 -9 -7 -8 -9 -16 -20 -23 -21 -17 -18 -18 -16 -16 -20 -18 -21 -21 -20 -22 -15 -14 -15 -16 -15 -16 -16 -16 -16 -16 -16 -17 -17 -17 -17 -17 -17 -17
-3 -3 -4 -7 -8 -8 -8 -7 -7 -9 -13 -16 -21 -21 -23 -20 -19 -20 -20 -19 -24 -24 -24 -21 -23 -22 -15 -15 -15 -16 -17 -16 -17 -17 -17 -18 -17 -18 -18 -18 -18 -19 -18 -18
-4 -5 -7 -8 -7 -7 -7 -12 -16 -17 -20 -20 -21 -21 -23 -20 -23 -25 -23 -26 -26 -22 -21 -21 -22 -16 -15 -15 -16 -17 -17 -18 -18 -18 -18 -18 -19 -19 -19 -19 -19 -20 -20 -20
-5 -6 -7 -7 -8 -8 -15 -22 -18 -22 -23 -20 -21 -21 -21 -20 -21 -20 -22 -26 -24 -20 -22 -21 -18 -17 -16 -16 -17 -18 -18 -18 -19 -19 -19 -20 -20 -20 -20 -20 -20 -21 -21 -21
-5 -6 -8 -9 -13 -17 -20 -21 -19 -21 -20 -20 -21 -22 -21 -20 -20 -22 -24 -20 -23 -22 -22 -20 -21 -15 -16 -17 -18 -18 -19 -19 -20 -20 -20 -20 -20 -20 -21 -20 -21 -21 -21 -22
-7 -10 -18 -20 -20 -22 -24 -23 -21 -19 -19 -20 -22 -22 -21 -21 -21 -25 -21 -23 -24 -20 -20 -17 -14 -16 -17 -17 -18 -19 -20 -20 -20 -20 -21 -20 -21 -21 -21 -21 -22 -22 -22 -22
-11 -11 -19 -18 -17 -17 -18 -19 -20 -20 -20 -21 -21 -20 -21 -21 -23 -21 -20 -17 -20 -18 -17 -14 -15 -17 -17 -18 -19 -19 -20 -20 -20 -20 -21 -21 -21 -22 -22 -22 -22 -22 -22 -22
-11 -14 -17 -16 -17 -16 -17 -18 -18 -19 -20 -20 -20 -21 -21 -22 -25 -18 -22 -20 -19 -14 -14 -16 -17 -17 -18 -18 -19 -20 -20 -21 -21 -21 -21 -22 -22 -22 -22 -22 -22 -22 -22 -22
-12 -14 -15 -15 -16 -15 -15 -16 -16 -16 -17 -20 -20 -16 -20 -20 -20 -19 -20 -17 -14 -15 -16 -17 -18 -18 -18 -19 -19 -19 -19 -20 -21 -21 -21 -22 -22 -22 -23 -23 -23 -23 -23 -22
Height
1492 1491 1491 1491 1492 1492 1488 1482 1480 1480 1482 1486 1482 1479 1475 1473 1473 1477 1479 1481 1479 1480 1481 1483 1484 1480 1473 1476 1481 1490 1491 1500 1513 1506 1517 1517 1514 1507 1505 1501 1514 1526 1526 1487
1484 1484 1484 1485 1485 1483 1483 1479 1476 1475 1478 1479 1475 1473 1470 1467 1469 1471 1474 1474 1471 1471 1475 1481 1479 1475 1475 1474 1478 1483 1488 1500 1509 1496 1515 1515 1513 1511 1509 1509 1505 1495 1507 1475
1478 1479 1478 1478 1478 1477 1477 1473 1474 1475 1477 1472 1470 1467 1464 1464 1462 1462 1464 1464 1468 1473 1474 1473 1471 1473 1474 1474 1474 1476 1481 1493 1481 1458 1480 1499 1510 1508 1504 1493 1498 1505 1474 1478
1470 1470 1470 1470 1470 1471 1468 1463 1462 1463 1469 1466 1464 1461 1457 1458 1458 1460 1462 1462 1459 1460 1465 1469 1469 1467 1473 1475 1473 1475 1479 1486 1492 1484 1485 1494 1488 1498 1499 1494 1486 1484 1472 1476
1464 1463 1463 1463 1464 1463 1458 1457 1458 1458 1454 1455 1456 1456 1451 1448 1448 1452 1453 1452 1445 1450 1447 1447 1451 1455 1462 1464 1472 1475 1480 1483 1496 1491 1487 1486 1482 1479 1488 1485 1481 1479 1479 1476
1457 1456 1456 1456 1458 1458 1454 1449 1447 1449 1448 1449 1451 1446 1440 1438 1442 1445 1446 1446 1449 1452 1448 1452 1454 1456 1460 1460 1464 1471 1477 1483 1486 1474 1494 1490 1483 1479 1476 1483 1499 1484 1483 1488
1450 1449 1449 1449 1450 1451 1449 1448 1444 1446 1442 1444 1446 1444 1443 1442 1442 1441 1448 1447 1448 1456 1452 1454 1458 1460 1464 1466 1470 1471 1473 1477 1480 1485 1494 1486 1487 1495 1492 1492 1499 1503 1498 1500
1444 1442 1441 1440 1441 1443 1441 1441 1441 1439 1443 1450 1448 1451 1450 1446 1445 1449 1451 1453 1452 1453 1455 1458 1461 1467 1468 1474 1478 1477 1476 1475 1480 1478 1482 1473 1495 1498 1499 1494 1497 1502 1502 1501
1435 1433 1432 1430 1432 1432 1434 1431 1433 1433 1437 1454 1459 1454 1452 1450 1451 1454 1456 1456 1456 1455 1455 1457 1456 1456 1468 1475 1482 1481 1479 1480 1477 1482 1480 1474 1501 1500 1499 1501 1498 1501 1501 1499
1427 1426 1424 1422 1423 1425 1426 1424 1425 1428 1439 1458 1459 1458 1459 1456 1455 1455 1458 1459 1459 1458 1457 1457 1460 1467 1478 1472 1484 1488 1485 1484 1486 1481 1478 1485 1502 1502 1501 1498 1504 1501 1499 1498
1422 1420 1418 1416 1416 1417 1418 1417 1419 1423 1440 1463 1463 1459 1462 1461 1459 1459 1463 1463 1463 1461 1462 1462 1470 1473 1486 1487 1500 1498 1492 1492 1493 1495 1496 1489 1504 1504 1502 1502 1498 1498 1498 1497
1423 1420 1417 1414 1413 1413 1414 1415 1418 1419 1427 1464 1466 1466 1468 1465 1466 1466 1465 1469 1469 1470 1470 1474 1476 1481 1489 1494 1493 1508 1501 1515 1509 1512 1504 1505 1504 1502 1501 1499 1498 1496 1492 1489
1428 1426 1422 1418 1417 1416 1416 1416 1421 1422 1444 1462 1467 1470 1470 1470 1468 1467 1468 1470 1470 1471 1473 1478 1484 1495 1500 1496 1507 1509 1517 1518 1517 1511 1506 1502 1501 1499 1498 1496 1492 1489 1486 1482
1436 1434 1431 1428 1426 1426 1426 1423 1427 1428 1440 1464 1483 1479 1473 1475 1473 1471 1471 1471 1473 1475 1477 1481 1490 1497 1504 1508 1512 1511 1517 1517 1521 1517 1506 1501 1497 1496 1494 1489 1486 1481 1476 1472
1442 1441 1440 1436 1437 1436 1434 1430 1432 1433 1439 1465 1480 1481 1483 1481 1479 1478 1476 1476 1476 1478 1482 1489 1503 1507 1509 1515 1515 1518 1516 1517 1518 1513 1506 1503 1495 1492 1488 1482 1477 1473 1467 1460
1446 1444 1442 1440 1439 1438 1440 1439 1446 1444 1447 1455 1479 1488 1488 1486 1484 1482 1481 1480 1481 1483 1490 1502 1507 1511 1513 1519 1523 1521 1519 1518 1515 1508 1502 1496 1490 1484 1481 1475 1469 1465 1460 1454
1455 1452 1449 1443 1440 1440 1442 1455 1456 1453 1453 1460 1481 1491 1493 1489 1488 1487 1487 1487 1488 1490 1499 1506 1512 1514 1515 1524 1529 1520 1516 1512 1508 1504 1495 1487 1483 1477 1473 1469 1462 1457 1451 1446
1463 1461 1459 1457 1453 1453 1452 1457 1458 1457 1457 1465 1486 1500 1498 1498 1497 1495 1495 1494 1495 1500 1507 1514 1517 1518 1519 1524 1521 1516 1513 1507 1501 1496 1492 1485 1477 1472 1466 1461 1454 1447 1442 1437
1467 1465 1464 1462 1459 1460 1464 1464 1465 1464 1467 1484 1507 1522 1519 1508 1507 1504 1502 1501 1506 1511 1516 1520 1522 1525 1524 1523 1519 1515 1509 1504 1495 1490 1485 1480 1474 1467 1461 1455 1449 1443 1437 1431
1469 1467 1467 1469 1473 1470 1469 1471 1473 1476 1489 1504 1522 1525 1522 1519 1512 1510 1508 1509 1517 1526 1527 1523 1524 1528 1523 1522 1518 1513 1508 1502 1494 1485 1478 1474 1468 1463 1457 1451 1446 1439 1432 1425
1473 1473 1477 1479 1476 1476 1477 1486 1495 1505 1517 1526 1529 1528 1527 1523 1522 1522 1521 1522 1523 1531 1529 1526 1531 1524 1523 1521 1516 1511 1504 1497 1491 1486 1480 1473 1467 1459 1453 1446 1441 1435 1429 1422
1480 1481 1482 1483 1486 1488 1498 1522 1524 1531 1543 1536 1534 1533 1530 1528 1526 1525 1525 1529 1527 1535 1530 1529 1529 1525 1523 1516 1511 1506 1499 1493 1487 1482 1476 1469 1463 1458 1451 1444 1438 1431 1424 1418
1484 1486 1491 1501 1514 1529 1546 1557 1547 1547 1544 1542 1541 1537 1533 1530 1529 1528 1529 1528 1540 1533 1534 1537 1532 1525 1520 1514 1508 1501 1496 1490 1484 1477 1471 1465 1459 1454 1448 1441 1434 1427 1420 1415
1492 1503 1524 1537 1552 1560 1562 1561 1557 1553 1547 1544 1540 1537 1535 1533 1532 1534 1536 1538 1537 1540 1546 1536 1525 1523 1518 1512 1506 1499 1492 1487 1480 1474 1467 1461 1455 1450 1444 1438 1431 1424 1416 1411
1508 1523 1556 1563 1564 1563 1560 1558 1554 1552 1548 1544 1541 1539 1539 1537 1536 1540 1539 1540 1550 1545 1541 1530 1527 1522 1516 1510 1503 1497 1491 1484 1478 1471 1465 1458 1453 1447 1440 1434 1428 1421 1415 1409
1529 1549 1562 1566 1564 1562 1559 1556 1553 1550 1546 1544 1544 1542 1542 1551 1554 1548 1564 1561 1558 1539 1536 1532 1526 1520 1515 1508 1501 1495 1489 1482 1476 1469 1463 1457 1451 1444 1437 1431 1426 1419 1413 1407
1556 1569 1567 1567 1566 1565 1561 1557 1554 1550 1547 1546 1545 1550 1560 1557 1558 1560 1555 1553 1544 1539 1534 1529 1524 1518 1512 1505 1498 1492 1486 1479 1473 1466 1460 1454 1448 1441 1434 1428 1422 1416 1411 1406
Wind_Speed
29 29 29 28 27 25 29 28 3 12 20 6 6 7 6 9 8 15 6 4 11 11 9 7 6 9 6 15 13 8 5 4 5 7 0 1 1 5 6 5 6 3 1 9
29 29 28 27 26 26 22 10 6 14 24 3 5 3 4 8 6 7 9 11 8 4 7 3 7 5 1 13 9 8 7 3 1 3 3 3 3 4 2 3 2 12 4 8
29 29 28 27 25 25 24 9 2 3 15 9 4 6 6 6 10 5 6 4 5 3 6 6 4 7 3 10 8 6 10 3 7 12 4 5 4 5 7 8 4 5 18 8
28 26 26 26 26 27 25 13 6 8 4 7 12 4 4 5 7 4 10 3 11 9 8 5 8 6 4 3 8 4 4 6 4 2 4 4 5 6 9 14 16 11 7 16
26 25 25 23 22 22 25 12 7 8 3 3 9 11 6 12 8 10 6 9 11 15 11 12 10 9 5 6 2 4 1 3 2 4 3 6 13 10 12 16 16 21 16 18
24 24 24 22 19 16 22 17 11 9 6 4 5 5 10 9 5 6 5 9 2 9 11 7 8 8 4 6 7 6 6 6 3 4 2 2 11 5 12 3 1 8 13 5
24 24 25 24 21 21 24 20 18 8 5 6 2 3 1 1 1 1 4 6 3 6 12 15 12 16 16 13 10 7 5 6 3 2 1 4 3 2 3 1 2 1 2 1
26 27 27 25 24 22 24 24 18 10 2 2 4 9 3 3 9 4 4 6 2 15 4 2 3 2 2 5 7 6 5 3 3 3 4 6 4 4 3 3 3 2 4 1
25 26 28 27 21 26 24 25 23 11 10 3 6 3 4 2 2 2 4 6 8 4 2 1 3 2 1 1 4 4 3 3 0 2 3 4 2 3 2 2 2 2 3 2
21 20 20 15 18 23 24 22 22 14 13 11 5 3 3 4 3 2 3 3 3 4 1 1 1 2 2 1 2 3 2 2 1 1 3 1 1 3 3 3 2 4 6 9
11 12 13 13 15 18 22 16 19 14 13 22 20 18 10 6 7 2 3 0 4 2 2 2 2 2 2 3 3 2 3 2 2 1 2 2 3 1 2 2 6 11 17 20
14 16 17 14 9 1 14 9 11 19 21 19 28 27 21 14 8 4 8 3 4 3 2 2 2 2 2 2 2 1 1 2 1 1 2 1 6 11 13 14 19 25 26 27
23 22 19 14 9 3 3 25 31 33 35 34 28 19 25 20 16 6 2 4 3 5 6 4 2 5 2 2 2 1 1 0 2 5 3 7 22 22 17 22 29 30 31 33
29 29 26 23 22 21 18 19 14 18 16 8 11 24 29 20 17 17 15 14 13 12 8 6 3 3 4 2 2 2 1 2 1 5 12 23 5 25 30 33 35 40 39 37
17 16 16 18 28 35 31 22 16 11 6 8 8 18 19 17 15 14 12 9 8 7 6 6 2 3 2 2 1 2 6 3 2 5 24 19 28 36 37 35 36 37 38 39
21 12 7 6 5 3 6 9 22 24 21 11 3 6 20 13 16 16 15 13 12 9 7 5 5 6 3 3 3 12 10 15 22 19 31 32 36 29 30 34 37 36 34 36
31 35 39 33 20 8 13 8 8 10 10 8 6 3 11 15 14 15 15 17 12 9 6 6 4 4 5 2 3 20 24 25 25 24 29 29 23 34 36 35 36 35 35 34
19 21 27 33 36 39 47 38 11 9 12 10 4 3 7 23 12 8 15 9 7 12 6 5 5 3 3 3 15 24 30 30 28 31 33 33 34 35 36 34 34 34 34 35
10 11 16 17 24 18 19 21 26 36 19 9 8 3 3 17 13 10 6 7 5 6 6 4 3 2 3 5 20 26 31 30 36 34 30 28 28 30 30 31 31 31 32 32
9 8 6 10 12 14 12 8 8 14 15 12 7 9 3 12 11 14 7 7 2 3 2 6 3 1 3 22 27 23 28 36 33 31 31 32 29 30 32 32 32 32 33 34
11 8 8 12 16 10 9 11 13 13 8 12 11 11 5 12 4 2 9 1 3 3 4 2 2 2 11 28 23 32 33 31 29 29 30 28 32 32 33 32 30 31 32 33
12 8 14 13 16 12 11 4 7 9 2 13 9 11 8 6 5 4 7 2 3 1 9 3 3 2 26 23 31 33 32 31 30 29 30 30 28 28 30 25 37 33 28 31
13 7 8 12 14 15 8 9 5 5 12 10 17 8 8 5 6 3 4 6 1 8 4 1 3 19 30 23 33 34 32 29 31 31 30 29 28 29 28 30 34 29 29 32
13 11 11 5 6 3 2 3 4 7 10 19 20 6 5 5 6 2 4 2 2 4 5 3 10 27 31 29 38 34 34 30 35 32 32 30 30 32 28 31 33 29 30 31
10 11 7 5 3 3 5 7 8 9 13 15 7 4 4 4 3 3 1 7 5 1 3 7 26 31 32 32 38 30 34 32 35 29 30 30 29 37 27 28 32 27 28 29
12 13 6 2 2 9 10 12 13 17 15 5 3 2 4 5 1 6 1 2 3 5 14 26 29 30 30 32 34 28 33 31 34 30 27 29 28 34 26 26 32 27 27 28
8 7 13 8 6 8 13 17 21 18 10 6 3 6 3 3 4 4 3 2 6 23 27 26 27 26 30 34 32 31 32 31 32 30 26 28 32 31 29 29 34 29 27 26
Wind_Direction
286 285 284 285 286 287 283 235 209 220 184 149 205 220 190 192 197 203 216 208 220 227 196 211 222 216 225 168 153 167 194 155 189 203 224 225 152 201 164 170 201 229 91 272
285 284 285 283 284 281 273 238 209 193 190 209 227 268 262 217 155 192 180 213 205 178 180 210 219 208 286 170 166 162 187 214 341 287 359 7 216 199 155 101 93 217 177 251
285 285 284 280 278 277 271 230 187 134 198 242 244 213 218 226 221 203 183 175 114 141 196 229 233 222 187 192 187 167 167 174 188 245 195 128 193 200 201 189 210 170 231 261
288 286 284 284 278 280 263 232 208 205 192 238 226 225 197 199 221 203 198 233 212 176 193 189 221 192 153 190 196 141 176 233 198 221 173 181 211 173 185 209 220 212 246 229
286 281 280 283 284 280 256 227 176 195 234 226 210 211 221 235 226 166 210 226 206 202 204 193 206 158 170 188 131 141 102 226 100 291 252 218 266 220 200 216 226 238 254 260
288 283 280 277 274 277 264 242 215 207 203 182 175 206 215 233 236 184 72 234 225 214 238 70 85 117 106 146 147 154 156 158 145 259 37 51 282 260 220 180 17 225 240 250
293 289 284 272 270 272 270 268 232 182 249 194 223 325 161 357 319 219 34 71 101 130 124 110 81 69 65 69 41 34 160 142 176 148 117 235 317 312 357 140 245 39 76 45
291 289 287 282 264 266 265 268 243 182 168 309 58 3 356 65 52 58 60 25 99 140 94 95 114 37 60 41 36 11 11 145 169 193 206 334 31 351 26 74 301 231 125 243
293 292 290 282 261 258 262 253 246 215 141 47 318 312 358 35 55 60 46 56 142 97 76 133 186 213 104 41 8 2 56 47 207 119 225 250 242 301 315 240 289 254 162 217
290 297 301 286 263 262 260 245 231 207 97 32 26 36 353 354 20 77 65 17 32 27 84 118 131 134 344 60 55 1 31 41 288 276 271 72 343 296 295 75 284 214 253 301
345 320 306 285 275 269 256 224 194 191 102 59 66 65 38 18 31 35 6 157 16 34 72 57 62 69 55 78 41 18 24 6 26 352 295 279 198 273 20 237 289 304 311 309
19 26 30 25 25 250 229 146 141 131 86 103 73 64 57 47 45 31 32 78 41 45 89 57 108 84 57 14 65 21 63 42 331 327 308 236 224 260 286 297 296 299 292 304
46 47 43 38 35 49 170 128 116 108 97 71 59 34 52 62 51 54 79 69 74 70 77 86 78 83 322 64 63 128 80 152 58 356 319 292 316 305 300 310 306 309 307 304
61 61 60 63 67 78 95 102 99 115 106 90 49 50 49 40 48 61 77 96 98 92 73 75 66 90 4 62 107 83 132 135 165 257 283 313 290 317 318 314 310 310 311 309
57 60 56 60 71 71 75 86 90 95 87 119 125 57 46 50 58 66 77 87 94 66 61 48 67 70 80 29 72 334 186 162 30 301 308 301 302 313 315 312 313 314 313 312
49 35 13 350 342 39 48 67 65 81 84 97 86 68 33 51 60 66 67 66 63 71 72 84 72 53 43 86 80 15 353 341 330 301 315 311 311 310 315 311 315 318 313 311
65 63 64 64 65 99 74 61 50 69 77 91 106 60 12 22 33 38 37 47 53 61 79 59 62 40 38 68 52 333 340 337 333 323 318 312 315 312 320 319 320 319 316 315
61 55 61 65 71 74 68 58 52 72 76 70 72 359 32 15 8 15 15 26 40 40 71 63 37 36 34 52 321 333 342 338 331 328 326 318 323 322 323 324 324 320 318 320
22 38 48 44 43 46 49 54 51 56 66 83 62 35 309 355 17 359 12 19 55 37 53 34 5 304 62 291 327 341 340 337 332 339 337 333 329 330 334 334 330 324 320 320
40 42 29 36 11 32 35 42 38 33 41 54 68 356 330 349 349 9 11 27 45 58 308 337 58 255 281 11 355 1 353 342 343 338 338 336 336 336 331 329 329 327 324 323
59 41 51 25 31 38 42 41 38 5 41 17 9 12 326 3 25 324 22 209 348 61 307 59 343 33 12 353 355 351 346 345 344 341 339 341 334 333 336 336 339 339 334 334
62 69 50 28 23 39 60 24 15 41 36 356 354 339 342 340 349 357 4 102 21 10 326 60 24 307 353 352 351 347 348 347 346 343 338 339 338 340 339 335 339 336 334 340
51 49 50 17 7 41 45 352 344 0 352 1 339 319 344 345 357 42 18 45 272 309 34 185 229 350 354 345 349 346 347 347 341 346 345 346 346 345 339 334 342 339 340 343
48 42 27 59 14 49 195 218 254 299 301 325 328 312 344 347 7 346 53 244 12 35 28 286 355 346 345 341 347 346 344 345 344 344 346 348 351 340 341 342 345 345 348 341
69 52 50 47 17 327 314 317 317 333 324 326 321 304 338 340 55 31 348 12 360 192 294 335 335 336 340 338 341 343 342 344 348 344 348 348 348 342 340 345 348 348 351 345
59 49 71 347 348 9 7 1 355 356 343 342 332 301 42 31 85 37 41 72 270 312 333 327 329 331 336 335 340 341 342 343 347 347 350 352 343 343 345 345 347 352 348 349
58 53 50 58 27 9 10 6 1 1 3 16 351 46 257 277 22 3 189 236 313 320 321 323 327 332 335 338 342 346 348 347 348 347 349 351 345 348 355 347 348 353 347 349